Miscellaneous Local Product
Issued by NWS North Platte, NE

Home | Current Version | Previous Version | Text Only | Print | Product List | Glossary On
Versions: 1 2 3 4 5 6 7 8 9 10 11 12 13 14 15 16 17 18 19 20 21 22 23 24 25 26 27 28 29 30 31 32 33 34 35 36 37 38 39 40 41 42 43 44 45 46 47 48 49 50
232
AXUS43 KLBF 300210
MISLBF


WESTERN AND NORTH CENTRAL NEBRASKA HOURLY WEATHER ROUNDUP
NATIONAL WEATHER SERVICE NORTH PLATTE NE
900 PM CDT SAT APR 29 2017

NOTE: "FAIR" INDICATES FEW OR NO CLOUDS BELOW 12,000 FEET WITH NO
SIGNIFICANT WEATHER AND/OR OBSTRUCTIONS TO VISIBILITY.

NOTE: STATIONS NOT REPORTING VARIABLES SUCH AS SKY/WEATHER OR
PRESSURE ARE PROVIDED BY RAWS AND APRS NETWORKS AND ARE NOT UNDER
NATIONAL WEATHER SERVICE QUALITY CONTROL.

...OBSERVATIONS IN AND NEAR THE EASTERN PANHANDLE OF NEBRASKA...

CITY           SKY/WX    TMP DP  RH WIND       PRES   REMARKS
PINE RIDGE     CLOUDY    45  25  45 NE3       30.18R
CHADRON        PTCLDY    45  28  51 E5        30.18R
ALLIANCE       CLOUDY    43  22  43 N10       30.15R
SIDNEY         CLOUDY    42  20  41 N18       30.14R
CRESCENT LAKE    N/A     43  18  36 NE13G20     N/A
$$

...OBSERVATIONS IN NORTHERN NEBRASKA AND FAR SOUTHERN SOUTH DAKOTA...

CITY           SKY/WX    TMP DP  RH WIND       PRES   REMARKS
WINNER         FAIR      48  26  42 NE6       30.16R
VALENTINE      MOCLDY    49  18  29 NE12      30.16R
THEDFORD       CLOUDY    47  23  38 NE16G22   30.12F
AINSWORTH      CLOUDY    46  26  45 NE10      30.13R
O`NEILL        CLOUDY    46  18  31 NE9       30.11S
ORD            CLOUDY    45  22  40 NE16G29   30.07R
BROKEN BOW     CLOUDY    44  28  53 NE22G28   30.07S
VALENTINE NWR    N/A     46  21  37 NE12G20     N/A
HALSEY           N/A     46  19  34 NE9G20      N/A
BUTTE            N/A     48  25  40 N12G18      N/A
CHAMBERS         N/A     45  22  39 NE3         N/A
EWING            N/A     45  27  48 NE7         N/A
$$

...OBSERVATIONS IN SOUTHWEST NEBRASKA AND FAR NORTHEAST COLORADO...

CITY           SKY/WX    TMP DP  RH WIND       PRES   REMARKS
HOLYOKE        FAIR      45  19  36 N21G33    30.11S
IMPERIAL       CLOUDY    42  24  49 N14       30.08S
OGALLALA       CLOUDY    46  24  42 NE7       30.11S
NORTH PLATTE   CLOUDY    45  25  45 NE12      30.08S
MCCOOK         LGT RAIN  39  33  79 N21G30    30.03F WCI  29
LEXINGTON      CLOUDY    42  32  67 NE20G30   30.06R
STAPLETON        N/A     43  24  46 E5G15       N/A
GOTHENBURG       N/A     44  27  51 N12         N/A
CALLAWAY         N/A     42  28  58 NE17        N/A
$$

...OBSERVATIONS IN CENTRAL LINCOLN COUNTY AREA...

CITY           SKY/WX    TMP DP  RH WIND       PRES   REMARKS
N.P. AIRPORT   CLOUDY    45  25  45 NE12      30.08S
N.P. DOWNTOWN    N/A     45  27  49 NE9G16      N/A
N.P. SOUTHEAST   N/A     45  26  47 N6G15       N/A
N.P. HILLCREST   N/A     45  27  48 NE15        N/A
$$

...SOME OBSERVATIONS FROM AROUND THE REGION...

CITY           SKY/WX    TMP DP  RH WIND       PRES   REMARKS
DENVER         CLOUDY    30  25  81 N13       30.18F WCI  20
LIMON          LGT SNOW  29  28  96 N30G38    30.09F FOG     WCI  13
ASPEN          CLOUDY    33  20  58 NW5       30.06S WCI  29
LARAMIE        CLOUDY    25  15  66 CALM      30.18R
CASPER         CLOUDY    38  21  50 SE7       30.18S WCI  33
CHEYENNE       CLOUDY    32  15  49 N9        30.18R WCI  24
SCOTTSBLUFF    CLOUDY    42  31  64 NW7       30.17S
GRAND ISLAND   CLOUDY    41  37  86 N20       30.03R
OMAHA          LGT RAIN  42  37  82 N18       30.02R
SIOUX FALLS    CLOUDY    49  27  42 NE10      30.15R
PIERRE         CLOUDY    48  22  35 E7        30.16R
RAPID CITY     CLEAR     42  23  46 NE7       30.17R
BISMARCK       MOCLDY    53  26  35 E7        30.16F
KANSAS CITY    RAIN      44  42  93 NE12      29.88R
HILL CITY      LGT RAIN  37  35  92 N23G30    29.97R WCI  26
WICHITA        LGT RAIN  46  45  96 N22G31    29.72R FOG
DODGE CITY     LGT SNOW  37  35  92 N28G38    29.83F FOG     WCI  25
OKLAHOMA CITY  DRIZZLE   51  48  89 NW13      29.68R FOG
DALLAS         CLOUDY    58  51  78 NW20      29.70R
AMARILLO       LGT SNOW  33  32  96 NW18G32   29.86F VSB 1   WCI  22
$$




USA.gov is the U.S. government's official web portal to all federal, state and local government web resources and services.